Flag for Germany Weather past 2 weeks in Stassfurt, Saxony-Anhalt, Germany

Now
86 °F

Passing clouds.


Feels Like: 90 °F
Forecast: 66 / 90 °F
Wind: 3 mph from Southeast

Location: Magdeburg

Current Time: Aug 30, 2015 at 4:09:53 PM

Latest Report: Aug 30, 2015 at 4:00 PM


Visibility: 28 mi

Pressure: 30.01 "Hg

Humidity: 54%

Dew point: 68 °F

Location of StassfurtLocation

Historic Weather in Stassfurt — Graph

°F

Stassfurt temperature yesterday

Maximum temperature yesterday: 74 °F (at 5:00 PM)
Minimum temperature yesterday: 54 °F (at 7:00 AM)
Average temperature yesterday: 65 °F

Past Weeks' High & Low Weather Summary

 TemperatureHumidityPressure
High85 °F (Aug 30, 3:00 PM)100% (Aug 16, 4:00 AM)30.30 "Hg (Aug 16, 4:00 AM)
Low51 °F (Aug 23, 7:00 AM)30% (Aug 22, 4:00 PM)29.66 "Hg (Aug 24, 7:00 PM)
Average66 °F77%30.00 "Hg
* Reported Aug 15 3:00 PM — Aug 30 3:00 PM, Stassfurt, Weather by CustomWeather, © 2015

Note: Actual official high and low records may vary slightly from our data, if they occured in-between our weather recording intervals... More about our weather records

Advertising

Stassfurt weather history for previous 24 hours

 ConditionsComfort  
Time TempWeatherWind HumidityBarometerVisibility
3:00 PM
Sun, Aug 30
85 °FPassing clouds.3 mph53%30.03 "Hg25 mi
2:00 PM83 °FScattered clouds.3 mph57%30.04 "Hg25 mi
1:00 PM82 °FPassing clouds.3 mph57%30.07 "Hg25 mi
12:00 PM79 °FPassing clouds.3 mph63%30.09 "Hg19 mi
11:00 AM75 °FScattered clouds.2 mph63%30.11 "Hg19 mi
10:00 AM71 °FPassing clouds.1 mph71%30.11 "Hg11 mi
9:00 AM68 °FScattered clouds.2 mph73%30.12 "Hg11 mi
8:00 AM64 °FScattered clouds.1 mph84%30.12 "Hg9 mi
7:00 AM60 °FScattered clouds.1 mph94%30.11 "Hg7 mi
6:00 AM60 °FPassing clouds.2 mph92%30.11 "Hg7 mi
4:00 AM60 °FFog.1 mph94%30.13 "Hg4 mi
3:00 AM61 °FLight fog.1 mph92%30.14 "Hg6 mi
2:00 AM61 °FPassing clouds.1 mph91%30.15 "Hg8 mi
1:00 AM63 °FPassing clouds.1 mph84%30.16 "Hg10 mi
12:00 AM63 °FPassing clouds.2 mph81%30.17 "Hg10 mi
10:00 PM
Sat, Aug 29
67 °FOvercast.2 mph74%30.18 "Hg15 mi
9:00 PM68 °FOvercast.1 mph71%30.17 "Hg22 mi
8:00 PM71 °FOvercast.2 mph62%30.16 "Hg28 mi
7:00 PM74 °FOvercast.2 mph58%30.17 "Hg34 mi
6:00 PM74 °FOvercast.2 mph56%30.18 "Hg34 mi
5:00 PM74 °FPartly sunny.2 mph54%30.19 "Hg31 mi
4:00 PM73 °FPartly sunny.3 mph55%30.21 "Hg31 mi
Weather by CustomWeather, © 2015

See weather overviewHow to use our weather pages